| time (UTC) | temp C | wind direction | speed KPH | gust KPH | rain 1hr cm | rain 24hr cm | rain mn cm | humidity % | barometer mb |
| 20260506103744 | 10 | 171 | 0.0 | 0.0 | 0.00 | 0.00 | 0.00 | 97 | |
| 20260506103241 | 10 | 178 | 0.0 | 0.0 | 0.00 | 0.00 | 0.00 | 97 | |
| 20260506102738 | 10 | 170 | 0.0 | 0.0 | 0.00 | 0.00 | 0.00 | 97 | |
| 20260506102236 | 10 | 171 | 0.0 | 0.0 | 0.00 | 0.00 | 0.00 | 97 | |
| 20260506101733 | 10 | 175 | 0.0 | 0.0 | 0.00 | 0.00 | 0.00 | 97 | |
| 20260506101229 | 10 | 170 | 0.0 | 0.0 | 0.00 | 0.00 | 0.00 | 97 | |
| 20260506100727 | 10 | 183 | 0.0 | 0.0 | 0.00 | 0.00 | 0.00 | 96 | |
| 20260506100226 | 10 | 172 | 0.0 | 0.0 | 0.00 | 0.00 | 0.00 | 97 | |
| 20260506095724 | 10 | 172 | 0.0 | 0.0 | 0.00 | 0.00 | 0.00 | 96 | |
| 20260506095220 | 10 | 171 | 0.0 | 0.0 | 0.00 | 0.00 | 0.00 | 96 | |
| 20260506094717 | 10 | 172 | 0.0 | 0.0 | 0.00 | 0.00 | 0.00 | 96 | |
| 20260506094215 | 10 | 172 | 0.0 | 0.0 | 0.00 | 0.00 | 0.00 | 96 | |
| 20260506093714 | 10 | 169 | 0.0 | 0.0 | 0.00 | 0.00 | 0.00 | 96 | |
| 20260506093210 | 10 | 173 | 0.0 | 0.0 | 0.00 | 0.00 | 0.00 | 96 | |
| 20260506092708 | 10 | 174 | 0.0 | 0.0 | 0.00 | 0.00 | 0.00 | 95 | |
| 20260506092205 | 10 | 170 | 0.0 | 0.0 | 0.00 | 0.00 | 0.00 | 95 | |
| 20260506091703 | 10 | 171 | 0.0 | 0.0 | 0.00 | 0.00 | 0.00 | 95 | |
| 20260506091200 | 10 | 170 | 0.0 | 0.0 | 0.00 | 0.00 | 0.00 | 95 | |
| 20260506090658 | 10 | 171 | 0.0 | 0.0 | 0.00 | 0.00 | 0.00 | 95 | |
| 20260506090154 | 10 | 171 | 0.0 | 0.0 | 0.00 | 0.00 | 0.00 | 95 | |
| 20260506085651 | 10 | 169 | 0.0 | 0.0 | 0.00 | 0.00 | 0.00 | 95 | |
| 20260506085147 | 10 | 179 | 0.0 | 0.0 | 0.00 | 0.00 | 0.00 | 95 | |
| 20260506084644 | 10 | 172 | 0.0 | 0.0 | 0.00 | 0.00 | 0.00 | 94 | |
| 20260506084141 | 10 | 172 | 0.0 | 0.0 | 0.00 | 0.00 | 0.00 | 94 | |
| 20260506083638 | 10 | 177 | 0.0 | 0.0 | 0.00 | 0.00 | 0.00 | 94 | |
| 20260506083136 | 10 | 167 | 0.0 | 0.0 | 0.00 | 0.00 | 0.00 | 94 | |
| 20260506082632 | 11 | 177 | 0.0 | 0.0 | 0.00 | 0.00 | 0.00 | 93 | |
| 20260506082128 | 11 | 199 | 0.0 | 0.0 | 0.00 | 0.00 | 0.00 | 92 | |
| 20260506081626 | 11 | 171 | 0.0 | 0.0 | 0.00 | 0.00 | 0.00 | 91 | |
| 20260506081123 | 11 | 175 | 0.0 | 0.0 | 0.00 | 0.00 | 0.00 | 90 | |
| 20260506080621 | 11 | 169 | 0.0 | 0.0 | 0.00 | 0.00 | 0.00 | 90 | |
| 20260506080117 | 11 | 164 | 0.0 | 0.0 | 0.00 | 0.00 | 0.00 | 90 | |
| 20260506073101 | 12 | 152 | 0.0 | 0.0 | 0.00 | 0.00 | 0.00 | 90 | |
| 20260506072558 | 11 | 167 | 0.0 | 0.0 | 0.00 | 0.00 | 0.00 | 91 | |
| 20260506072056 | 11 | 159 | 0.0 | 0.0 | 0.00 | 0.00 | 0.00 | 90 | |
| 20260506071553 | 12 | 168 | 0.0 | 0.0 | 0.00 | 0.00 | 0.00 | 90 | |
| 20260506071051 | 11 | 172 | 0.0 | 0.0 | 0.00 | 0.00 | 0.00 | 90 | |
| 20260506070548 | 11 | 168 | 0.0 | 0.0 | 0.00 | 0.00 | 0.00 | 89 | |
| 20260506062022 | 12 | 177 | 0.0 | 0.0 | 0.00 | 0.00 | 0.00 | 85 | |
| 20260506061517 | 12 | 171 | 0.0 | 0.0 | 0.00 | 0.00 | 0.00 | 85 | |
| 20260506061015 | 12 | 175 | 0.0 | 0.0 | 0.00 | 0.00 | 0.00 | 84 | |
| 20260506060514 | 13 | 177 | 0.0 | 0.0 | 0.00 | 0.00 | 0.00 | 82 | |
| 20260506050942 | 15 | 153 | 0.0 | 0.0 | 0.00 | 0.00 | 0.00 | 72 | |
| 20260506050440 | 15 | 132 | 0.0 | 0.0 | 0.00 | 0.00 | 0.00 | 71 | |
| 20260506044930 | 15 | 134 | 0.0 | 1.6 | 0.00 | 0.00 | 0.00 | 70 | |
| 20260506044429 | 15 | 159 | 1.6 | 3.2 | 0.00 | 0.00 | 0.00 | 69 | |
| 20260506043925 | 15 | 176 | 1.6 | 3.2 | 0.00 | 0.00 | 0.00 | 70 | |
| 20260506043423 | 16 | 137 | 1.6 | 8.0 | 0.00 | 0.00 | 0.00 | 69 | |
| 20260506042920 | 16 | 197 | 3.2 | 4.8 | 0.00 | 0.00 | 0.00 | 69 | |
| 20260506042420 | 16 | 170 | 0.0 | 1.6 | 0.00 | 0.00 | 0.00 | 69 | |
| 20260506041917 | 16 | 162 | 0.0 | 0.0 | 0.00 | 0.00 | 0.00 | 69 | |
| 20260506041415 | 16 | 172 | 1.6 | 8.0 | 0.00 | 0.00 | 0.00 | 69 | |
| 20260506040912 | 16 | 154 | 1.6 | 1.6 | 0.00 | 0.00 | 0.00 | 69 | |
| 20260506040409 | 16 | 155 | 1.6 | 3.2 | 0.00 | 0.00 | 0.00 | 69 | |
| 20260506035905 | 16 | 162 | 0.0 | 1.6 | 0.00 | 0.00 | 0.00 | 69 | |
| 20260506035403 | 16 | 159 | 1.6 | 4.8 | 0.00 | 0.00 | 0.00 | 68 | |
| 20260506034859 | 17 | 169 | 0.0 | 1.6 | 0.00 | 0.00 | 0.00 | 68 | |
| 20260506034357 | 17 | 168 | 0.0 | 3.2 | 0.00 | 0.00 | 0.00 | 68 | |
| 20260506033854 | 17 | 167 | 1.6 | 3.2 | 0.00 | 0.00 | 0.00 | 67 | |
| 20260506033351 | 17 | 99 | 1.6 | 4.8 | 0.00 | 0.00 | 0.00 | 67 | |
| 20260506032848 | 17 | 200 | 3.2 | 3.2 | 0.00 | 0.00 | 0.00 | 66 | |
| 20260506032344 | 18 | 151 | 0.0 | 4.8 | 0.00 | 0.00 | 0.00 | 65 | |
| 20260506031841 | 18 | 166 | 1.6 | 4.8 | 0.00 | 0.00 | 0.00 | 64 | |
| 20260506031339 | 18 | 175 | 1.6 | 8.0 | 0.00 | 0.00 | 0.00 | 64 | |
| 20260506030836 | 18 | 163 | 1.6 | 4.8 | 0.00 | 0.00 | 0.00 | 64 | |
| 20260506030334 | 18 | 177 | 0.0 | 8.0 | 0.00 | 0.00 | 0.00 | 63 | |
| 20260506025830 | 18 | 156 | 1.6 | 11.3 | 0.00 | 0.00 | 0.00 | 63 | |
| 20260506025327 | 19 | 154 | 1.6 | 4.8 | 0.00 | 0.00 | 0.00 | 62 | |
| 20260506024824 | 19 | 119 | 4.8 | 4.8 | 0.00 | 0.00 | 0.00 | 62 | |
| 20260506024321 | 20 | 178 | 4.8 | 11.3 | 0.00 | 0.00 | 0.00 | 62 | |
| 20260506023817 | 20 | 174 | 3.2 | 8.0 | 0.00 | 0.00 | 0.00 | 61 | |
| 20260506023314 | 20 | 190 | 4.8 | 8.0 | 0.00 | 0.00 | 0.00 | 62 | |
| 20260506022810 | 20 | 169 | 1.6 | 8.0 | 0.00 | 0.00 | 0.00 | 62 | |
| 20260506022309 | 20 | 201 | 4.8 | 8.0 | 0.00 | 0.00 | 0.00 | 61 | |
| 20260506021806 | 20 | 161 | 3.2 | 4.8 | 0.00 | 0.00 | 0.00 | 61 | |
| 20260506021303 | 20 | 203 | 6.4 | 8.0 | 0.00 | 0.00 | 0.00 | 60 | |
| 20260506020759 | 20 | 185 | 0.0 | 4.8 | 0.00 | 0.00 | 0.00 | 60 | |
| 20260506020258 | 20 | 144 | 1.6 | 11.3 | 0.00 | 0.00 | 0.00 | 60 | |
| 20260506015755 | 20 | 152 | 3.2 | 9.7 | 0.00 | 0.00 | 0.00 | 59 | |
| 20260506015252 | 21 | 204 | 4.8 | 9.7 | 0.00 | 0.00 | 0.00 | 59 | |
| 20260506014749 | 21 | 189 | 8.0 | 9.7 | 0.00 | 0.00 | 0.00 | 58 | |
| 20260506014246 | 21 | 226 | 4.8 | 4.8 | 0.00 | 0.00 | 0.00 | 58 | |
| 20260506013743 | 21 | 233 | 3.2 | 4.8 | 0.00 | 0.00 | 0.00 | 58 | |
| 20260506013240 | 21 | 182 | 3.2 | 11.3 | 0.00 | 0.00 | 0.00 | 58 | |
| 20260506012737 | 21 | 117 | 1.6 | 9.7 | 0.00 | 0.00 | 0.00 | 58 | |
| 20260506012234 | 21 | 171 | 1.6 | 14.5 | 0.00 | 0.00 | 0.00 | 57 | |
| 20260506011731 | 21 | 189 | 6.4 | 12.9 | 0.00 | 0.00 | 0.00 | 57 | |
| 20260506011226 | 22 | 183 | 4.8 | 8.0 | 0.00 | 0.00 | 0.00 | 54 | |
| 20260506010725 | 21 | 181 | 3.2 | 11.3 | 0.00 | 0.00 | 0.00 | 56 | |
| 20260506010222 | 22 | 146 | 6.4 | 9.7 | 0.00 | 0.00 | 0.00 | 54 | |
| 20260506005719 | 22 | 204 | 1.6 | 11.3 | 0.00 | 0.00 | 0.00 | 54 | |
| 20260506005216 | 23 | 177 | 8.0 | 11.3 | 0.00 | 0.00 | 0.00 | 53 | |
| 20260506004712 | 23 | 193 | 1.6 | 8.0 | 0.00 | 0.00 | 0.00 | 52 | |
| 20260506004210 | 23 | 168 | 1.6 | 3.2 | 0.00 | 0.00 | 0.00 | 52 | |
| 20260506003705 | 23 | 175 | 4.8 | 8.0 | 0.00 | 0.00 | 0.00 | 52 | |
| 20260506003203 | 24 | 233 | 3.2 | 4.8 | 0.00 | 0.00 | 0.00 | 49 | |
| 20260506002658 | 23 | 161 | 4.8 | 9.7 | 0.00 | 0.00 | 0.00 | 51 | |
| 20260506002155 | 23 | 157 | 4.8 | 4.8 | 0.00 | 0.00 | 0.00 | 51 | |
| 20260506001650 | 22 | 109 | 3.2 | 14.5 | 0.00 | 0.00 | 0.00 | 53 | |
| 20260506001148 | 23 | 28 | 6.4 | 11.3 | 0.00 | 0.00 | 0.00 | 52 | |
| 20260506000645 | 24 | 228 | 3.2 | 3.2 | 0.00 | 0.00 | 0.00 | 50 | |
| 20260506000142 | 23 | 182 | 3.2 | 8.0 | 0.00 | 0.00 | 0.00 | 52 | |
| 20260505235640 | 24 | 168 | 1.6 | 9.7 | 0.00 | 0.00 | 0.00 | 51 | |
| 20260505235137 | 23 | 159 | 1.6 | 9.7 | 0.00 | 0.00 | 0.00 | 51 | |
| 20260505234634 | 23 | 139 | 4.8 | 9.7 | 0.00 | 0.00 | 0.00 | 52 | |
| 20260505234130 | 23 | 230 | 0.0 | 9.7 | 0.00 | 0.00 | 0.00 | 53 | |
| 20260505233628 | 23 | 166 | 0.0 | 4.8 | 0.00 | 0.00 | 0.00 | 53 | |
| 20260505233125 | 22 | 163 | 3.2 | 12.9 | 0.00 | 0.00 | 0.00 | 55 | |
| 20260505232623 | 25 | 195 | 4.8 | 9.7 | 0.00 | 0.00 | 0.00 | 51 | |
| 20260505232120 | 23 | 147 | 4.8 | 11.3 | 0.00 | 0.00 | 0.00 | 54 | |
| 20260505231617 | 22 | 174 | 4.8 | 11.3 | 0.00 | 0.00 | 0.00 | 55 | |
| 20260505231116 | 22 | 197 | 3.2 | 11.3 | 0.00 | 0.00 | 0.00 | 55 | |
| 20260505230614 | 23 | 180 | 1.6 | 3.2 | 0.00 | 0.00 | 0.00 | 54 | |
| 20260505230110 | 23 | 192 | 4.8 | 11.3 | 0.00 | 0.00 | 0.00 | 55 | |
| 20260505225606 | 22 | 163 | 8.0 | 11.3 | 0.00 | 0.00 | 0.00 | 57 | |
| 20260505225103 | 22 | 20 | 4.8 | 14.5 | 0.00 | 0.00 | 0.00 | 57 | |
| 20260505224559 | 22 | 130 | 6.4 | 9.7 | 0.00 | 0.00 | 0.00 | 56 | |
| 20260505224056 | 22 | 123 | 8.0 | 9.7 | 0.00 | 0.00 | 0.00 | 57 | |
| 20260505223554 | 22 | 147 | 4.8 | 11.3 | 0.00 | 0.00 | 0.00 | 58 | |
| 20260505223049 | 21 | 93 | 3.2 | 14.5 | 0.00 | 0.00 | 0.00 | 60 | |
| 20260505222546 | 21 | 151 | 3.2 | 14.5 | 0.00 | 0.00 | 0.00 | 60 | |
| 20260505222043 | 21 | 185 | 3.2 | 12.9 | 0.00 | 0.00 | 0.00 | 61 | |
| 20260505221540 | 21 | 164 | 6.4 | 14.5 | 0.00 | 0.00 | 0.00 | 60 | |
| 20260505221036 | 21 | 156 | 1.6 | 11.3 | 0.00 | 0.00 | 0.00 | 61 | |
| 20260505220533 | 21 | 198 | 8.0 | 9.7 | 0.00 | 0.00 | 0.00 | 59 | |
| 20260505220031 | 21 | 109 | 1.6 | 12.9 | 0.00 | 0.00 | 0.00 | 63 | |
| 20260505215529 | 20 | 97 | 0.0 | 11.3 | 0.00 | 0.00 | 0.00 | 62 | |
| 20260505215026 | 20 | 207 | 4.8 | 12.9 | 0.00 | 0.00 | 0.00 | 62 | |
| 20260505214524 | 20 | 93 | 4.8 | 11.3 | 0.00 | 0.00 | 0.00 | 61 | |
| 20260505214021 | 20 | 148 | 3.2 | 9.7 | 0.00 | 0.00 | 0.00 | 64 | |
| 20260505213519 | 20 | 212 | 6.4 | 9.7 | 0.00 | 0.00 | 0.00 | 64 | |
| 20260505213015 | 20 | 124 | 1.6 | 12.9 | 0.00 | 0.00 | 0.00 | 65 | |
| 20260505212511 | 20 | 135 | 6.4 | 14.5 | 0.00 | 0.00 | 0.00 | 66 | |
| 20260505212009 | 20 | 145 | 6.4 | 16.1 | 0.00 | 0.00 | 0.00 | 65 | |
| 20260505211506 | 20 | 164 | 3.2 | 11.3 | 0.00 | 0.00 | 0.00 | 65 | |
| 20260505211002 | 19 | 72 | 8.0 | 16.1 | 0.00 | 0.00 | 0.00 | 65 | |
| 20260505210459 | 18 | 140 | 11.3 | 20.9 | 0.00 | 0.00 | 0.00 | 67 | |
| 20260505205956 | 18 | 147 | 14.5 | 16.1 | 0.00 | 0.00 | 0.00 | 66 | |
| 20260505205454 | 18 | 121 | 8.0 | 14.5 | 0.00 | 0.00 | 0.00 | 67 | |
| 20260505204950 | 18 | 180 | 1.6 | 8.0 | 0.00 | 0.00 | 0.00 | 66 | |
| 20260505204449 | 19 | 162 | 6.4 | 11.3 | 0.00 | 0.00 | 0.00 | 66 | |
| 20260505203946 | 18 | 163 | 4.8 | 12.9 | 0.00 | 0.00 | 0.00 | 69 | |
| 20260505203442 | 17 | 133 | 4.8 | 17.7 | 0.00 | 0.00 | 0.00 | 70 | |
| 20260505202938 | 18 | 162 | 9.7 | 12.9 | 0.00 | 0.00 | 0.00 | 68 | |
| 20260505202435 | 19 | 120 | 11.3 | 17.7 | 0.00 | 0.00 | 0.00 | 66 | |
| 20260505201931 | 17 | 155 | 6.4 | 11.3 | 0.00 | 0.00 | 0.00 | 71 | |
| 20260505201428 | 17 | 131 | 8.0 | 11.3 | 0.00 | 0.00 | 0.00 | 70 | |
| 20260505200926 | 17 | 49 | 1.6 | 14.5 | 0.00 | 0.00 | 0.00 | 72 | |
| 20260505200423 | 17 | 77 | 8.0 | 11.3 | 0.00 | 0.00 | 0.00 | 69 | |
| 20260505195919 | 17 | 176 | 4.8 | 9.7 | 0.00 | 0.00 | 0.00 | 69 | |
| 20260505195416 | 17 | 139 | 3.2 | 17.7 | 0.00 | 0.00 | 0.00 | 69 | |
| 20260505194914 | 18 | 251 | 1.6 | 12.9 | 0.00 | 0.00 | 0.00 | 68 | |
| 20260505194411 | 17 | 175 | 4.8 | 11.3 | 0.00 | 0.00 | 0.00 | 70 | |
| 20260505193911 | 17 | 134 | 1.6 | 20.9 | 0.00 | 0.00 | 0.00 | 73 | |
| 20260505193410 | 17 | 125 | 8.0 | 11.3 | 0.00 | 0.00 | 0.00 | 69 | |
| 20260505192907 | 17 | 179 | 4.8 | 11.3 | 0.00 | 0.00 | 0.00 | 72 | |
| 20260505192405 | 17 | 188 | 6.4 | 11.3 | 0.00 | 0.00 | 0.00 | 71 | |
| 20260505191902 | 17 | 138 | 3.2 | 14.5 | 0.00 | 0.00 | 0.00 | 71 | |
| 20260505191401 | 17 | 125 | 4.8 | 12.9 | 0.00 | 0.00 | 0.00 | 70 | |
| 20260505190857 | 18 | 166 | 1.6 | 8.0 | 0.00 | 0.00 | 0.00 | 70 | |
| 20260505190353 | 17 | 115 | 6.4 | 12.9 | 0.00 | 0.00 | 0.00 | 69 | |
| 20260505185848 | 18 | 150 | 9.7 | 17.7 | 0.00 | 0.00 | 0.00 | 68 | |
| 20260505185345 | 18 | 146 | 6.4 | 12.9 | 0.00 | 0.00 | 0.00 | 68 | |
| 20260505184841 | 18 | 150 | 8.0 | 16.1 | 0.00 | 0.00 | 0.00 | 68 | |
| 20260505184338 | 18 | 155 | 8.0 | 12.9 | 0.00 | 0.00 | 0.00 | 67 | |
| 20260505183836 | 17 | 115 | 8.0 | 11.3 | 0.00 | 0.00 | 0.00 | 68 | |
| 20260505183332 | 18 | 158 | 4.8 | 11.3 | 0.00 | 0.00 | 0.00 | 68 | |
| 20260505182829 | 18 | 214 | 4.8 | 8.0 | 0.00 | 0.00 | 0.00 | 66 | |
| 20260505182326 | 17 | 158 | 4.8 | 9.7 | 0.00 | 0.00 | 0.00 | 68 | |
| 20260505181823 | 17 | 71 | 6.4 | 11.3 | 0.00 | 0.00 | 0.00 | 71 | |
| 20260505181320 | 17 | 118 | 4.8 | 11.3 | 0.00 | 0.00 | 0.00 | 71 | |
| 20260505180816 | 17 | 181 | 4.8 | 11.3 | 0.00 | 0.00 | 0.00 | 70 | |
| 20260505180313 | 17 | 162 | 4.8 | 11.3 | 0.00 | 0.00 | 0.00 | 70 | |
| 20260505175809 | 17 | 98 | 4.8 | 9.7 | 0.00 | 0.00 | 0.00 | 71 | |
| 20260505175306 | 16 | 144 | 4.8 | 12.9 | 0.00 | 0.00 | 0.00 | 72 | |
| 20260505174802 | 17 | 173 | 8.0 | 14.5 | 0.00 | 0.00 | 0.00 | 70 | |
| 20260505174300 | 17 | 143 | 1.6 | 4.8 | 0.00 | 0.00 | 0.00 | 71 | |
| 20260505173756 | 17 | 89 | 9.7 | 17.7 | 0.00 | 0.00 | 0.00 | 72 | |
| 20260505173252 | 16 | 167 | 8.0 | 11.3 | 0.00 | 0.00 | 0.00 | 72 | |
| 20260505172749 | 17 | 170 | 1.6 | 4.8 | 0.00 | 0.00 | 0.00 | 71 | |
| 20260505172246 | 16 | 169 | 1.6 | 12.9 | 0.00 | 0.00 | 0.00 | 74 | |
| 20260505171746 | 16 | 136 | 8.0 | 12.9 | 0.00 | 0.00 | 0.00 | 73 | |
| 20260505171243 | 16 | 85 | 6.4 | 12.9 | 0.00 | 0.00 | 0.00 | 73 | |
| 20260505170739 | 16 | 146 | 8.0 | 12.9 | 0.00 | 0.00 | 0.00 | 74 | |
| 20260505170237 | 16 | 146 | 4.8 | 9.7 | 0.00 | 0.00 | 0.00 | 71 | |
| 20260505165732 | 16 | 176 | 4.8 | 12.9 | 0.00 | 0.00 | 0.00 | 75 | |
| 20260505165228 | 16 | 118 | 3.2 | 9.7 | 0.00 | 0.00 | 0.00 | 74 | |
| 20260505164724 | 15 | 71 | 6.4 | 12.9 | 0.00 | 0.00 | 0.00 | 75 | |
| 20260505164221 | 16 | 111 | 3.2 | 12.9 | 0.00 | 0.00 | 0.00 | 74 | |
| 20260505163719 | 15 | 113 | 9.7 | 12.9 | 0.00 | 0.00 | 0.00 | 75 | |
| 20260505163217 | 15 | 159 | 1.6 | 11.3 | 0.00 | 0.00 | 0.00 | 76 | |
| 20260505162714 | 15 | 113 | 4.8 | 11.3 | 0.00 | 0.00 | 0.00 | 76 | |
| 20260505162211 | 16 | 153 | 1.6 | 8.0 | 0.00 | 0.00 | 0.00 | 74 | |
| 20260505161708 | 16 | 190 | 6.4 | 8.0 | 0.00 | 0.00 | 0.00 | 74 | |
| 20260505161206 | 16 | 130 | 3.2 | 11.3 | 0.00 | 0.00 | 0.00 | 75 | |
| 20260505160703 | 16 | 129 | 8.0 | 9.7 | 0.00 | 0.00 | 0.00 | 74 | |
| 20260505160201 | 16 | 154 | 0.0 | 4.8 | 0.00 | 0.00 | 0.00 | 74 | |
| 20260505153140 | 15 | 152 | 1.6 | 3.2 | 0.00 | 0.00 | 0.00 | 79 | |
| 20260505152636 | 14 | 157 | 4.8 | 4.8 | 0.00 | 0.00 | 0.00 | 79 | |
| 20260505152132 | 15 | 139 | 1.6 | 3.2 | 0.00 | 0.00 | 0.00 | 78 | |
| 20260505151628 | 15 | 148 | 0.0 | 3.2 | 0.00 | 0.00 | 0.00 | 78 | |
| 20260505151125 | 14 | 132 | 1.6 | 3.2 | 0.00 | 0.00 | 0.00 | 80 | |
| 20260505150621 | 14 | 200 | 1.6 | 4.8 | 0.00 | 0.00 | 0.00 | 80 | |
| 20260505150119 | 14 | 157 | 0.0 | 3.2 | 0.00 | 0.00 | 0.00 | 80 | |
| 20260505140547 | 11 | 155 | 0.0 | 0.0 | 0.00 | 0.00 | 0.00 | 91 | |
| 20260505125000 | 10 | 178 | 0.0 | 0.0 | 0.00 | 0.00 | 0.00 | 93 | |
| 20260505124457 | 10 | 178 | 0.0 | 0.0 | 0.00 | 0.00 | 0.00 | 93 | |
| 20260505123953 | 10 | 177 | 0.0 | 0.0 | 0.00 | 0.00 | 0.00 | 93 | |
| 20260505123450 | 10 | 178 | 0.0 | 0.0 | 0.00 | 0.00 | 0.00 | 93 | |
| 20260505122946 | 10 | 178 | 0.0 | 0.0 | 0.00 | 0.00 | 0.00 | 93 | |
| 20260505122443 | 10 | 174 | 0.0 | 0.0 | 0.00 | 0.00 | 0.00 | 92 | |
| 20260505121940 | 10 | 179 | 0.0 | 0.0 | 0.00 | 0.00 | 0.00 | 92 | |
| 20260505121437 | 10 | 195 | 0.0 | 0.0 | 0.00 | 0.00 | 0.00 | 92 | |
| 20260505120933 | 10 | 172 | 0.0 | 0.0 | 0.00 | 0.00 | 0.00 | 92 | |
| 20260505120430 | 10 | 168 | 0.0 | 0.0 | 0.00 | 0.00 | 0.00 | 92 | |
| 20260505115928 | 10 | 167 | 0.0 | 0.0 | 0.00 | 0.00 | 0.00 | 92 | |
| 20260505115425 | 10 | 163 | 0.0 | 0.0 | 0.00 | 0.00 | 0.00 | 92 | |
| 20260505114923 | 10 | 168 | 0.0 | 0.0 | 0.00 | 0.00 | 0.00 | 92 | |
| 20260505114419 | 10 | 176 | 0.0 | 0.0 | 0.00 | 0.00 | 0.00 | 91 | |
| 20260505113915 | 10 | 179 | 0.0 | 0.0 | 0.00 | 0.00 | 0.00 | 91 | |
| 20260505113413 | 10 | 201 | 0.0 | 0.0 | 0.00 | 0.00 | 0.00 | 91 | |
| 20260505112908 | 10 | 170 | 0.0 | 0.0 | 0.00 | 0.00 | 0.00 | 91 | |
| 20260505112406 | 10 | 173 | 0.0 | 0.0 | 0.00 | 0.00 | 0.00 | 91 | |
| 20260505111902 | 10 | 176 | 0.0 | 0.0 | 0.00 | 0.00 | 0.00 | 91 | |
| 20260505111357 | 10 | 174 | 0.0 | 0.0 | 0.00 | 0.00 | 0.00 | 90 | |
| 20260505110853 | 10 | 174 | 0.0 | 0.0 | 0.00 | 0.00 | 0.00 | 90 | |
| 20260505110351 | 10 | 182 | 0.0 | 0.0 | 0.00 | 0.00 | 0.00 | 90 |